Wind_Speed
54 55 57 58 60 59 58 57 54 52 51 49 46 42 40 40 38 35 32 29 27 26 24 21 21 21 20 20 21 20 19 18 17 15 15 14 14 14 14 13 12 12 12 12 11 10 9 9 9 8 8 6 4 4 4 5 6 8 8 8 8 9 9
55 56 56 58 60 60 60 58 56 54 53 51 48 43 42 41 39 36 34 32 30 29 28 25 23 23 23 22 22 20 19 18 18 17 15 15 15 15 15 14 14 14 14 14 14 13 11 11 10 10 9 8 7 6 5 5 6 7 9 9 10 11 12
55 56 57 58 59 61 61 61 59 57 55 54 51 46 43 42 41 37 34 34 34 32 31 31 29 28 26 24 21 19 18 17 17 18 17 16 16 16 16 16 16 16 15 15 15 14 13 12 12 11 11 11 10 9 9 8 8 9 10 10 12 13 13
55 56 57 59 59 60 61 62 61 59 58 57 54 50 46 44 43 40 35 34 34 33 36 37 35 32 30 27 24 22 20 19 18 18 19 19 19 18 19 18 19 19 17 16 15 15 14 14 14 13 13 14 14 13 13 12 12 12 12 12 14 15 16
54 55 56 58 59 59 60 61 61 60 60 59 57 53 49 47 45 43 39 36 35 36 39 39 36 34 32 31 29 25 23 22 20 20 20 21 22 21 21 21 20 20 19 18 17 16 15 15 16 16 16 17 17 18 17 17 17 17 16 16 17 17 18
53 54 55 57 58 59 59 60 61 61 60 60 59 55 52 50 48 46 43 40 38 39 41 39 37 35 34 33 32 29 26 24 22 22 22 24 24 23 23 22 21 20 20 20 19 18 16 16 17 19 20 20 20 21 21 21 20 20 20 20 20 20 21
51 53 54 55 57 59 59 59 60 61 60 59 58 56 54 51 49 47 46 44 41 41 42 40 38 36 33 33 34 32 29 26 25 24 23 24 25 24 23 22 21 21 21 21 22 21 19 19 20 22 23 23 24 24 24 24 23 23 23 22 23 23 23
49 51 52 53 56 58 59 58 58 59 60 58 57 56 55 51 48 47 48 46 42 40 41 40 37 35 34 34 34 35 33 32 30 27 23 22 23 23 23 23 22 22 22 22 22 23 23 23 23 24 25 25 26 27 26 26 26 26 26 25 26 26 25
47 48 50 51 53 56 57 57 57 58 58 57 56 56 56 53 49 47 47 45 41 39 40 39 37 35 35 35 36 37 38 38 36 31 26 23 21 20 21 21 21 22 22 22 23 24 25 26 26 26 27 27 27 28 28 27 27 27 28 28 28 27 26
45 46 47 49 51 54 56 56 56 56 56 55 56 57 57 55 52 49 47 44 41 39 37 37 37 36 35 36 36 36 37 38 38 35 31 26 22 19 18 19 19 19 20 24 27 27 25 25 28 29 28 28 28 28 28 27 26 27 28 28 27 26 26
43 43 45 48 49 51 53 54 54 55 55 54 55 57 57 56 54 51 48 44 41 37 34 34 36 36 35 35 35 36 36 36 36 35 34 31 29 25 21 17 16 16 22 30 33 31 28 29 31 31 29 29 30 29 28 27 26 26 26 26 26 26 27
40 41 43 46 47 48 50 52 52 53 53 53 54 55 55 55 53 50 47 43 39 34 30 30 33 36 37 35 34 35 35 35 35 34 34 33 32 31 27 22 19 19 26 34 36 34 34 34 34 34 32 30 30 30 28 27 27 27 27 28 28 29 28
38 38 40 44 46 46 47 49 51 52 52 52 52 52 51 52 52 49 44 41 38 33 30 30 31 35 39 37 35 35 34 34 34 33 34 33 33 34 31 29 28 27 28 31 33 35 36 36 36 37 35 30 29 29 27 26 26 27 28 29 28 29 29
37 36 38 42 44 44 45 47 50 51 51 50 50 49 48 50 51 48 44 42 40 36 33 32 30 31 37 37 36 36 34 34 33 32 33 34 34 34 34 33 34 34 32 30 32 35 36 35 35 36 34 31 31 31 28 26 26 25 27 30 30 31 31
36 35 36 40 42 43 44 46 48 50 50 49 49 49 48 49 49 47 47 46 42 37 35 32 27 28 32 32 31 33 34 33 32 32 32 33 33 34 35 35 37 38 34 31 31 34 35 35 35 34 34 34 33 31 28 28 29 30 32 35 36 35 36
35 34 36 39 41 42 43 44 46 48 48 49 50 50 50 50 49 49 50 48 44 40 37 32 27 27 30 29 28 29 32 32 31 32 33 34 34 35 36 37 38 38 34 31 32 34 35 37 37 36 35 34 32 30 28 28 32 35 37 39 39 38 38
35 35 36 39 41 41 42 42 44 46 47 48 50 50 50 49 50 51 50 47 44 43 39 33 29 27 26 27 26 27 30 31 32 34 36 39 39 39 39 39 39 37 34 33 35 36 35 35 37 37 35 34 33 34 33 33 37 40 41 41 41 41 39
36 36 38 40 41 41 41 42 44 46 47 48 48 48 48 49 50 49 47 45 45 46 42 35 30 27 25 26 24 25 28 31 34 38 41 42 41 40 40 38 37 37 36 35 38 40 39 38 39 39 38 37 38 40 41 42 44 46 45 44 43 41 39
37 38 40 41 42 42 43 44 45 45 46 46 45 44 45 47 47 46 45 45 45 46 43 37 33 31 30 29 27 26 31 38 43 46 45 41 40 39 38 37 37 39 39 39 40 42 44 44 44 43 43 43 45 46 47 46 46 45 46 45 43 41 40
39 41 43 43 43 45 46 46 46 45 44 44 43 43 44 44 44 43 42 39 37 39 40 38 35 33 32 32 30 31 38 45 49 50 46 40 38 39 39 39 39 40 41 43 44 44 45 46 46 47 47 49 50 50 48 46 46 47 47 47 45 44 43
41 44 45 45 46 48 48 46 45 44 44 43 43 44 44 43 43 42 37 32 31 34 36 37 36 34 34 34 33 33 40 46 45 41 38 37 36 38 39 40 41 41 41 42 44 46 47 48 49 51 53 53 53 51 49 49 50 51 51 50 50 49 48
43 46 47 48 50 50 48 45 44 43 43 43 43 44 44 44 44 41 35 32 32 34 35 36 36 36 38 40 39 39 41 42 37 31 30 33 36 38 40 41 41 40 39 39 41 44 47 49 50 51 52 53 52 51 51 51 51 51 51 51 51 52 52
45 48 50 52 53 50 46 45 45 43 42 42 44 45 45 44 43 40 35 34 36 37 37 38 38 38 39 41 42 43 41 35 30 27 29 31 34 37 40 40 39 38 37 37 39 42 44 47 48 49 50 51 52 52 51 50 49 49 50 51 52 53 54
47 51 54 56 55 50 46 45 44 42 42 42 44 45 45 44 42 40 37 36 37 38 39 40 41 40 38 38 40 43 43 35 26 25 28 28 29 32 36 37 37 37 38 38 39 40 42 45 48 50 51 52 52 51 49 47 46 47 49 50 52 55 56
49 54 58 59 56 51 46 45 43 42 42 43 44 45 45 45 45 43 41 39 40 40 40 42 44 42 38 39 42 46 49 44 35 31 31 28 26 28 33 37 39 39 39 38 35 35 37 41 44 47 49 51 50 49 47 45 45 46 47 49 52 55 57
51 56 61 62 58 51 47 45 42 41 43 44 43 43 45 46 46 45 43 42 43 43 42 42 45 45 42 42 44 46 49 50 47 42 36 31 27 26 28 33 37 39 39 36 31 31 35 37 38 40 42 43 46 47 47 46 46 47 48 49 50 53 55
53 58 63 62 57 52 49 48 44 42 43 43 41 41 43 44 43 41 40 40 42 44 44 43 45 47 47 45 44 44 45 47 47 43 38 36 34 30 28 30 33 34 36 35 31 33 37 39 39 38 36 37 42 45 47 48 48 50 51 51 50 50 52
56 61 65 64 59 54 50 48 44 41 41 42 41 39 38 38 40 40 38 38 39 41 44 45 45 47 48 44 40 38 38 38 37 36 35 37 37 33 30 29 27 26 28 29 31 36 41 41 39 36 34 38 45 49 51 54 55 55 54 52 49 47 47
58 62 67 67 63 57 51 46 43 42 42 44 44 41 35 34 36 38 39 39 39 39 41 44 46 45 44 40 36 34 35 36 34 32 32 34 34 32 29 26 25 24 24 24 28 36 41 39 38 38 40 47 54 56 56 55 53 50 47 45 43 42 42
60 63 67 67 65 61 54 48 43 41 41 44 48 46 41 35 34 36 38 40 42 43 42 43 43 43 41 40 38 37 37 39 37 34 33 33 31 30 28 27 28 29 29 27 28 33 35 35 38 42 46 51 55 55 52 49 46 44 43 42 41 41 41
61 63 65 68 68 65 58 50 43 38 37 39 44 45 41 36 35 37 40 42 43 44 44 42 41 40 38 38 39 39 40 40 39 37 36 34 31 29 29 30 30 29 28 29 31 32 30 29 33 40 45 48 50 51 50 50 50 52 53 52 50 48 48
64 65 67 71 73 69 63 55 47 40 38 39 43 44 39 34 34 36 39 42 43 44 44 43 42 41 39 36 35 36 38 39 38 38 38 36 33 31 30 31 31 32 31 32 34 35 33 32 36 43 48 50 52 53 54 56 58 59 60 60 59 57 56
67 70 72 75 78 75 70 63 54 47 43 43 46 48 42 35 34 36 37 38 41 43 43 44 44 44 43 41 38 35 35 36 36 36 37 36 35 32 29 26 26 30 33 33 34 36 37 38 43 48 52 54 54 54 55 56 57 58 59 59 59 58 58
68 72 74 76 78 77 75 73 68 60 54 50 51 53 49 40 36 36 36 35 37 40 42 43 46 46 46 46 45 42 39 37 35 34 35 36 35 35 33 28 25 27 31 33 35 37 39 39 42 45 48 49 50 49 49 51 53 54 54 55 56 56 55
67 72 74 75 74 71 69 71 71 68 64 60 57 56 53 46 38 34 32 32 35 39 40 41 43 46 48 50 51 48 45 43 41 38 36 36 37 38 38 35 32 32 34 35 34 34 34 35 37 40 41 42 42 42 43 45 47 49 50 52 53 53 52
65 69 73 74 72 66 61 61 63 63 64 65 62 59 56 50 43 37 33 31 32 36 39 40 42 44 48 52 54 53 50 48 46 44 41 39 38 40 41 40 38 36 36 35 34 33 34 35 36 38 38 37 38 39 41 42 44 45 46 47 48 49 50
63 65 70 72 70 65 60 57 57 58 59 62 63 61 59 55 50 43 38 34 32 34 38 40 42 44 46 50 54 56 58 58 56 54 51 47 44 44 45 44 42 39 37 36 34 31 32 35 36 37 37 36 36 38 40 41 42 42 43 44 45 46 48
62 63 66 67 64 61 57 54 54 56 58 60 61 60 58 57 55 49 43 39 37 36 38 40 42 44 46 47 47 50 55 59 60 59 57 53 50 48 47 46 44 41 41 40 33 25 23 26 28 30 31 32 34 37 40 41 42 42 43 43 44 44 46
Wind_Direction
233 230 228 227 227 228 228 227 226 225 226 225 226 227 226 226 226 225 227 229 232 235 236 236 234 232 235 237 237 239 239 240 239 238 237 238 242 245 246 247 249 252 252 250 247 243 246 258 264 257 242 242 263 277 299 323 328 328 325 323 322 318 315
234 232 230 228 227 227 227 227 226 224 224 225 226 227 225 225 226 226 227 229 231 235 239 244 244 240 238 238 239 240 242 246 248 246 243 242 245 250 255 258 259 260 259 256 253 247 245 252 262 259 243 240 253 254 260 284 300 308 310 310 313 317 320
233 231 230 229 227 226 226 227 226 225 224 224 225 227 225 225 227 229 231 231 232 238 244 248 249 247 245 243 242 242 244 250 254 252 250 248 247 249 254 260 262 263 265 265 263 257 252 252 259 259 245 241 248 248 250 264 278 291 299 305 309 310 312
231 230 230 229 228 226 225 225 226 225 225 224 224 225 226 226 227 228 230 229 230 239 247 247 246 249 250 248 243 240 241 246 251 252 251 249 246 245 246 250 254 259 264 267 268 265 258 253 255 257 251 245 246 249 252 261 272 281 291 302 308 307 306
232 230 229 229 229 228 226 225 225 225 225 225 224 225 226 228 227 227 229 228 229 236 241 242 242 246 249 246 243 240 239 243 250 256 258 253 247 244 243 244 249 257 263 266 269 268 262 256 254 254 255 253 252 254 257 262 270 278 287 296 303 304 303
235 231 228 228 229 228 227 226 225 225 225 225 225 226 227 228 228 229 229 229 230 233 234 235 237 240 244 244 242 242 241 243 251 260 266 261 252 248 249 249 251 256 261 265 267 268 264 258 255 253 254 255 257 259 262 265 271 277 283 289 292 296 297
236 233 229 227 227 228 227 226 225 225 224 225 225 225 225 226 228 230 231 231 231 231 232 235 237 238 242 243 243 245 245 247 251 257 263 264 260 257 254 252 253 256 258 259 261 263 264 259 256 254 254 256 260 263 266 269 273 276 278 280 282 286 289
236 234 231 227 226 226 226 226 226 225 224 224 224 224 223 224 226 229 232 233 233 233 234 238 239 239 241 244 245 248 250 251 253 253 252 257 262 263 259 252 252 255 256 256 257 260 262 261 260 260 259 260 263 265 267 269 271 275 277 279 281 282 284
237 234 232 229 226 225 226 225 225 225 225 223 223 222 222 223 224 227 231 233 234 236 237 239 240 240 240 243 248 253 255 254 253 248 242 243 253 262 265 261 256 255 254 255 256 259 263 263 262 262 262 263 264 266 267 268 270 274 278 281 282 282 284
236 233 231 230 226 224 225 225 224 225 225 224 222 221 221 222 222 224 228 231 235 239 242 243 243 242 243 246 250 256 257 253 249 245 238 237 243 252 263 270 269 266 262 256 256 260 263 258 256 258 260 261 263 264 266 268 271 275 277 280 281 284 288
235 233 230 229 227 223 223 224 224 224 224 225 222 220 221 221 222 224 227 232 238 242 244 248 249 247 246 249 252 256 258 253 246 243 239 239 242 246 252 261 265 262 253 248 250 256 256 249 250 257 260 260 261 263 265 268 270 273 275 276 279 286 291
235 232 229 228 226 222 221 222 222 222 223 224 223 221 221 222 223 226 227 232 237 239 237 240 247 249 248 250 252 255 257 254 247 243 241 242 247 248 246 247 248 247 242 241 245 251 251 248 251 257 262 262 263 265 268 268 269 272 272 274 278 285 287
235 231 227 226 224 220 218 218 219 220 221 222 223 223 223 224 226 226 224 225 229 230 228 227 234 246 250 251 255 258 257 253 248 246 244 245 248 248 244 242 245 249 248 246 247 249 250 250 252 256 260 263 264 267 271 274 276 277 274 274 278 281 282
235 230 225 223 221 218 214 214 215 216 218 220 220 221 222 223 224 221 218 220 224 226 226 223 226 239 248 252 259 263 258 252 249 249 248 248 248 247 244 243 244 250 253 253 251 251 252 252 253 256 258 260 261 263 267 274 278 276 274 276 280 281 283
233 228 222 219 218 214 211 211 211 212 215 217 217 218 218 219 218 215 214 220 225 225 223 222 225 235 244 252 263 266 259 251 250 252 251 250 249 248 246 245 246 250 252 253 251 250 250 251 254 256 257 258 258 259 262 268 270 270 273 279 282 284 286
230 224 217 214 213 211 209 208 208 210 212 214 215 215 216 216 214 213 215 221 226 225 223 222 222 228 241 254 267 270 263 256 255 257 255 251 248 246 245 246 248 248 246 248 252 249 247 249 252 253 255 257 258 257 258 261 264 270 276 280 282 285 287
226 220 212 209 208 208 207 206 206 207 209 211 213 215 215 214 212 213 217 222 224 223 223 220 215 217 234 251 263 273 270 264 261 261 257 251 246 246 247 248 248 246 242 243 247 248 247 248 248 248 252 256 258 258 258 260 265 274 280 282 283 286 287
222 215 208 205 204 205 204 203 203 204 206 209 212 214 214 214 213 215 219 221 223 224 223 218 210 208 219 235 250 266 265 255 252 254 253 249 246 246 249 249 247 246 242 240 243 245 246 245 245 247 251 255 258 261 263 266 271 276 280 282 283 285 284
218 212 206 203 203 203 202 200 199 200 202 205 208 210 211 212 212 215 216 218 220 220 217 213 208 207 215 222 229 242 245 240 244 249 249 246 245 245 247 248 248 247 245 242 242 244 245 244 245 247 252 257 262 266 268 271 274 278 281 282 282 282 282
214 209 205 202 201 200 199 197 196 197 199 202 204 206 208 207 206 206 210 214 216 213 210 209 207 206 212 215 218 228 234 237 243 247 243 240 244 246 245 245 248 249 247 244 242 243 245 247 248 251 257 265 270 273 274 276 277 279 281 281 280 281 281
211 207 203 199 198 197 197 195 195 197 200 202 202 203 203 202 201 204 209 214 215 211 209 207 203 201 203 205 209 220 228 234 240 242 239 239 244 247 246 246 247 248 248 247 245 244 247 250 254 258 263 269 273 275 276 276 278 280 281 280 278 279 280
209 205 199 196 196 196 196 196 197 200 203 203 202 202 201 201 204 210 216 218 217 217 215 210 206 206 206 205 209 215 223 232 239 240 240 245 248 250 250 249 248 249 251 253 253 252 253 256 259 262 264 267 270 273 275 277 280 282 282 281 279 278 278
207 203 197 194 194 195 196 198 198 201 204 205 204 203 202 204 208 213 219 222 221 220 220 217 214 213 213 214 217 219 222 231 239 240 244 251 254 256 256 255 255 258 261 262 263 264 264 264 264 265 267 268 270 273 275 278 281 284 285 284 282 281 279
205 201 196 193 193 193 195 199 201 203 205 204 203 203 205 207 210 214 219 223 222 220 220 220 218 217 216 219 223 224 225 230 239 243 249 256 260 260 259 258 260 263 264 265 267 270 271 272 271 271 271 272 274 276 277 280 283 286 288 287 285 283 282
203 200 195 193 192 192 195 201 205 205 203 201 202 204 207 210 213 217 220 220 220 221 222 220 219 218 217 220 224 225 226 231 244 251 252 254 255 255 255 254 255 258 261 264 266 269 274 277 275 273 274 274 275 275 278 282 284 286 288 289 288 286 284
203 201 196 193 191 192 197 203 205 203 199 199 202 206 209 212 216 220 221 220 221 223 223 222 221 218 218 221 226 228 229 235 245 250 249 247 246 246 250 253 254 256 257 259 259 262 267 270 269 271 274 274 272 272 275 279 281 283 287 289 289 287 286
202 201 197 193 191 194 200 204 205 201 197 198 202 205 208 213 217 219 221 222 225 226 224 222 221 221 221 223 226 229 232 237 243 245 245 248 250 246 244 248 253 255 255 255 255 257 259 259 260 264 268 267 268 271 273 273 275 279 284 287 288 287 286
203 201 198 194 193 196 201 205 205 201 199 202 204 205 210 218 221 223 223 224 226 227 224 219 219 221 223 225 228 230 232 237 240 242 245 249 250 246 242 245 250 253 254 255 255 256 256 255 256 258 258 260 266 272 274 274 276 278 281 284 286 286 285
203 202 200 197 194 194 197 202 205 205 208 211 212 212 219 226 226 225 226 225 224 224 222 219 219 221 223 224 226 229 233 237 239 240 244 246 244 242 240 239 241 240 238 240 245 250 253 254 254 255 255 259 265 270 274 277 278 278 281 285 288 288 290
203 202 202 200 196 194 193 193 196 202 210 216 217 217 219 224 225 224 224 223 222 221 221 220 220 223 226 227 228 229 233 238 238 238 240 241 241 241 236 228 228 232 232 229 230 240 249 253 253 252 255 260 264 267 270 273 275 279 286 291 292 293 295
201 201 202 201 198 197 194 190 189 194 202 210 213 211 213 222 230 229 224 221 220 220 220 221 223 226 230 232 231 230 232 236 236 234 235 237 239 242 241 234 230 233 237 237 237 241 249 254 252 252 255 260 263 265 267 271 275 280 286 289 291 293 295
199 198 200 200 199 198 194 190 191 196 201 204 204 203 209 223 235 235 228 224 222 221 221 223 225 227 228 228 226 225 225 226 226 227 231 235 236 240 245 248 245 243 245 249 252 253 252 249 248 252 257 261 264 267 270 272 274 278 281 285 287 290 291
200 199 199 200 200 199 196 195 200 206 207 205 204 205 211 220 230 234 231 226 225 224 223 224 225 225 224 223 221 220 219 218 219 224 230 232 231 234 243 252 252 249 252 258 262 265 264 260 257 259 262 265 269 272 275 276 278 279 281 283 285 287 288
202 202 201 201 201 202 203 206 212 215 215 213 212 214 218 221 223 225 224 222 224 226 226 228 228 227 225 224 224 224 223 222 225 231 233 233 231 231 237 241 238 240 252 263 268 270 272 272 270 270 271 273 275 280 283 284 284 285 285 286 286 286 288
205 204 203 202 202 203 207 211 217 220 220 220 219 219 221 220 219 221 221 219 219 222 225 228 230 229 226 224 224 226 226 228 234 239 240 238 234 232 234 237 236 241 254 263 267 270 272 274 275 277 278 280 282 286 289 291 291 290 289 289 289 290 292
207 206 206 204 203 204 208 212 217 220 221 222 221 220 218 217 220 226 230 226 220 220 224 228 230 230 227 225 226 228 230 232 237 242 245 246 242 238 238 239 241 246 253 258 263 268 271 272 273 274 275 277 282 286 290 294 295 295 295 295 296 296 296
208 208 208 206 205 208 212 215 219 221 221 222 223 222 220 220 222 227 233 233 228 226 227 229 232 233 232 230 230 233 235 238 241 245 248 250 247 243 243 244 246 249 252 257 263 271 275 276 273 269 268 273 280 286 291 294 296 298 299 301 301 299 297
208 209 209 207 206 209 213 216 220 222 222 223 223 224 225 225 225 227 232 235 234 232 232 232 234 237 238 238 238 238 239 241 244 246 249 250 247 244 244 247 250 252 254 256 258 263 272 276 272 269 271 275 280 285 289 293 295 298 300 301 301 300 298
Height
10922 10926 10929 10933 10936 10939 10942 10946 10951 10955 10959 10964 10968 10971 10974 10977 10980 10983 10986 10989 10991 10992 10993 10994 10996 10996 10997 10998 10998 10999 11001 11002 11002 11003 11003 11004 11004 11005 11005 11005 11005 11004 11004 11004 11003 11004 11004 11004 11004 11005 11005 11006 11006 11006 11006 11006 11005 11005 11005 11005 11005 11005 11005
10915 10919 10923 10926 10930 10934 10937 10941 10946 10950 10955 10959 10963 10967 10970 10973 10976 10980 10983 10986 10989 10990 10991 10993 10994 10994 10994 10995 10996 10998 10999 11001 11002 11002 11003 11004 11004 11004 11004 11004 11004 11004 11004 11003 11003 11003 11003 11003 11003 11004 11004 11004 11004 11004 11004 11004 11004 11004 11004 11004 11004 11004 11004
10907 10911 10915 10918 10922 10927 10931 10936 10941 10945 10949 10953 10957 10962 10966 10969 10973 10977 10981 10983 10986 10988 10989 10990 10991 10991 10992 10994 10996 10997 10998 10999 11000 11001 11002 11003 11003 11003 11003 11003 11003 11003 11003 11003 11003 11003 11003 11003 11003 11003 11003 11003 11003 11002 11002 11002 11002 11002 11002 11003 11003 11003 11003
10900 10905 10908 10911 10915 10920 10925 10930 10935 10940 10944 10947 10952 10957 10961 10966 10969 10973 10976 10979 10983 10985 10985 10985 10987 10989 10991 10993 10995 10995 10996 10997 10998 10999 10999 11000 11000 11000 11000 11000 11000 11001 11001 11001 11002 11002 11002 11002 11002 11001 11001 11001 11001 11001 11000 11000 11000 11001 11001 11002 11002 11002 11002
10894 10898 10902 10906 10909 10914 10919 10924 10929 10934 10938 10942 10947 10952 10957 10962 10965 10968 10971 10974 10978 10978 10977 10979 10983 10987 10988 10990 10992 10992 10993 10993 10994 10995 10996 10997 10997 10997 10997 10997 10998 10998 10999 11000 11000 11000 11000 11001 11000 11000 11000 10999 10999 10999 10999 10999 10999 10999 11000 11001 11001 11001 11001
10888 10892 10896 10900 10904 10909 10913 10918 10923 10928 10932 10937 10943 10948 10952 10957 10961 10964 10967 10968 10970 10970 10970 10974 10979 10983 10985 10987 10988 10990 10990 10990 10991 10993 10993 10994 10994 10995 10995 10996 10996 10997 10998 10998 10998 10997 10998 10998 10998 10998 10997 10997 10997 10996 10996 10997 10997 10998 10998 10999 10998 10998 10998
10883 10886 10890 10895 10899 10903 10908 10913 10917 10921 10926 10932 10938 10943 10947 10951 10957 10960 10961 10961 10963 10965 10966 10969 10974 10979 10982 10983 10985 10987 10987 10988 10989 10990 10990 10991 10991 10992 10993 10994 10995 10995 10995 10995 10995 10995 10995 10995 10995 10995 10994 10994 10994 10994 10994 10994 10995 10995 10995 10995 10995 10995 10995
10877 10881 10885 10890 10893 10897 10902 10908 10912 10916 10920 10927 10933 10937 10942 10946 10951 10953 10955 10957 10960 10962 10963 10966 10972 10977 10979 10980 10982 10983 10984 10985 10986 10987 10988 10988 10989 10990 10990 10991 10992 10992 10993 10993 10993 10992 10991 10991 10991 10991 10991 10991 10991 10991 10992 10992 10992 10991 10992 10992 10992 10992 10992
10871 10876 10880 10885 10889 10892 10896 10902 10907 10911 10916 10922 10927 10932 10936 10941 10945 10947 10950 10953 10957 10958 10960 10964 10968 10973 10976 10977 10978 10979 10980 10982 10983 10984 10985 10986 10986 10987 10988 10989 10990 10990 10990 10991 10989 10988 10987 10987 10987 10987 10988 10988 10988 10988 10988 10988 10988 10989 10989 10989 10989 10989 10989
10866 10871 10876 10879 10884 10888 10891 10897 10903 10908 10912 10917 10921 10926 10930 10935 10938 10941 10945 10949 10953 10956 10958 10962 10966 10969 10972 10973 10975 10976 10976 10977 10979 10981 10982 10983 10983 10984 10985 10987 10987 10989 10991 10990 10985 10983 10982 10981 10980 10982 10983 10985 10985 10985 10985 10985 10986 10986 10986 10985 10985 10986 10986
10862 10866 10871 10874 10878 10883 10887 10892 10898 10903 10908 10912 10916 10920 10924 10928 10932 10937 10942 10947 10951 10954 10957 10960 10963 10966 10968 10970 10971 10972 10972 10973 10975 10976 10978 10979 10980 10981 10983 10985 10986 10989 10988 10983 10977 10976 10975 10974 10975 10978 10980 10981 10981 10982 10982 10983 10983 10983 10983 10982 10982 10982 10983
10858 10862 10866 10869 10873 10878 10883 10888 10893 10899 10903 10907 10911 10915 10920 10926 10931 10936 10941 10946 10950 10951 10953 10957 10961 10964 10965 10966 10967 10968 10968 10969 10971 10972 10973 10975 10976 10977 10980 10983 10984 10983 10980 10974 10972 10973 10972 10971 10974 10976 10978 10978 10978 10979 10979 10979 10980 10980 10979 10979 10979 10979 10979
10855 10858 10862 10865 10868 10873 10879 10884 10888 10893 10898 10902 10906 10912 10919 10925 10929 10933 10938 10942 10945 10947 10949 10951 10956 10960 10961 10962 10963 10964 10965 10966 10967 10968 10969 10970 10971 10973 10976 10979 10977 10975 10973 10971 10971 10972 10971 10971 10972 10974 10975 10976 10977 10977 10977 10977 10976 10976 10975 10975 10975 10975 10975
10851 10854 10857 10860 10864 10868 10874 10878 10883 10888 10893 10898 10903 10909 10915 10919 10923 10929 10934 10936 10938 10941 10944 10945 10950 10955 10957 10958 10960 10961 10962 10963 10963 10964 10964 10965 10967 10968 10971 10973 10971 10969 10970 10970 10970 10969 10970 10970 10970 10971 10973 10974 10974 10975 10975 10975 10975 10973 10971 10970 10971 10971 10970
10847 10849 10853 10856 10860 10864 10869 10873 10879 10884 10888 10893 10899 10905 10909 10913 10918 10924 10928 10929 10931 10936 10940 10942 10946 10951 10953 10954 10956 10958 10960 10960 10961 10960 10960 10960 10962 10964 10966 10967 10965 10964 10966 10967 10967 10967 10968 10968 10968 10968 10969 10970 10971 10972 10972 10972 10972 10970 10969 10967 10966 10966 10966
10843 10845 10848 10852 10856 10861 10865 10870 10875 10880 10884 10889 10894 10898 10902 10907 10913 10918 10920 10923 10927 10931 10935 10937 10940 10945 10950 10951 10953 10955 10958 10960 10959 10958 10957 10956 10956 10958 10959 10960 10959 10960 10963 10964 10964 10964 10964 10964 10964 10965 10965 10966 10967 10968 10970 10969 10967 10965 10965 10964 10962 10962 10961
10839 10842 10845 10849 10853 10857 10862 10866 10871 10875 10879 10884 10888 10892 10896 10901 10906 10910 10913 10918 10923 10926 10929 10931 10932 10938 10946 10950 10952 10954 10958 10959 10956 10954 10951 10948 10949 10951 10952 10953 10955 10956 10959 10960 10959 10959 10959 10960 10960 10960 10961 10961 10962 10964 10966 10965 10962 10960 10960 10959 10958 10957 10957
10836 10839 10842 10845 10849 10853 10858 10862 10866 10870 10875 10879 10883 10888 10892 10896 10900 10904 10908 10913 10917 10919 10923 10925 10925 10930 10939 10946 10950 10954 10957 10956 10950 10945 10941 10938 10940 10944 10946 10948 10950 10952 10954 10955 10954 10954 10955 10955 10956 10956 10956 10956 10957 10957 10959 10958 10956 10955 10954 10954 10953 10953 10952
10833 10836 10839 10842 10846 10850 10855 10858 10862 10867 10871 10876 10880 10884 10888 10892 10897 10902 10906 10908 10910 10912 10916 10918 10920 10924 10930 10936 10942 10948 10950 10947 10940 10935 10932 10931 10934 10939 10941 10943 10945 10947 10948 10949 10949 10950 10950 10950 10951 10951 10951 10951 10951 10951 10951 10951 10951 10950 10949 10949 10949 10948 10948
10830 10832 10835 10839 10844 10848 10852 10856 10861 10865 10870 10874 10878 10882 10886 10891 10896 10900 10904 10906 10908 10910 10912 10912 10914 10917 10922 10928 10934 10936 10934 10931 10927 10925 10926 10929 10933 10935 10935 10937 10939 10940 10942 10943 10944 10945 10945 10946 10946 10946 10946 10946 10945 10945 10946 10946 10945 10945 10945 10944 10944 10943 10943
10827 10829 10833 10838 10843 10847 10852 10856 10861 10865 10869 10873 10876 10880 10884 10890 10895 10898 10901 10904 10906 10907 10909 10909 10910 10911 10914 10919 10922 10920 10916 10916 10918 10920 10923 10926 10929 10930 10930 10931 10932 10934 10936 10938 10940 10941 10941 10942 10942 10942 10942 10942 10941 10941 10941 10941 10941 10940 10940 10939 10938 10937 10937
10823 10826 10831 10836 10842 10847 10852 10857 10861 10864 10867 10871 10875 10878 10882 10886 10890 10894 10897 10900 10902 10904 10906 10908 10909 10909 10909 10909 10908 10906 10906 10910 10914 10918 10919 10921 10923 10924 10925 10926 10928 10930 10933 10935 10937 10938 10938 10938 10938 10938 10938 10937 10936 10936 10937 10936 10935 10935 10934 10933 10932 10932 10931
10821 10824 10829 10835 10842 10849 10854 10857 10859 10862 10866 10869 10873 10877 10880 10883 10885 10889 10893 10896 10899 10901 10903 10905 10906 10906 10907 10906 10905 10906 10909 10912 10913 10915 10916 10917 10919 10920 10922 10924 10925 10928 10930 10932 10933 10933 10933 10933 10933 10933 10933 10932 10931 10931 10931 10930 10929 10928 10928 10927 10926 10925 10924
10818 10822 10827 10834 10842 10848 10852 10854 10856 10860 10863 10867 10871 10875 10878 10880 10882 10885 10889 10891 10893 10895 10897 10899 10901 10903 10906 10908 10908 10909 10911 10911 10910 10911 10913 10914 10916 10917 10918 10921 10923 10925 10927 10929 10930 10931 10930 10929 10929 10928 10926 10925 10925 10925 10925 10925 10924 10923 10922 10921 10920 10918 10917
10816 10820 10825 10833 10840 10846 10849 10850 10853 10857 10860 10863 10867 10871 10875 10878 10880 10882 10884 10885 10887 10889 10890 10892 10895 10899 10904 10906 10905 10904 10904 10905 10906 10908 10910 10911 10912 10913 10915 10917 10919 10922 10924 10927 10930 10932 10930 10927 10924 10921 10920 10919 10919 10919 10919 10920 10919 10918 10917 10916 10914 10912 10910
10814 10817 10822 10829 10837 10843 10846 10847 10850 10854 10857 10859 10862 10867 10871 10874 10876 10878 10879 10880 10881 10882 10885 10888 10891 10895 10897 10898 10898 10899 10900 10900 10902 10904 10906 10907 10909 10911 10913 10915 10916 10919 10921 10926 10930 10932 10929 10925 10920 10917 10916 10915 10913 10913 10914 10914 10914 10913 10912 10911 10909 10907 10904
10811 10815 10821 10830 10837 10842 10843 10845 10849 10853 10855 10857 10860 10864 10868 10870 10871 10873 10874 10876 10876 10878 10881 10885 10888 10889 10890 10891 10893 10896 10897 10898 10899 10902 10904 10905 10906 10908 10911 10913 10914 10916 10918 10922 10926 10926 10921 10917 10915 10914 10914 10911 10908 10908 10909 10908 10908 10907 10907 10906 10904 10902 10899
10807 10811 10818 10825 10833 10838 10842 10846 10850 10855 10857 10859 10860 10863 10865 10865 10866 10867 10869 10872 10873 10875 10878 10881 10883 10884 10886 10889 10892 10894 10895 10896 10897 10899 10901 10902 10902 10904 10907 10909 10912 10914 10916 10919 10920 10915 10909 10908 10909 10909 10909 10906 10904 10904 10903 10902 10902 10902 10901 10901 10899 10897 10894
10803 10807 10812 10819 10824 10830 10837 10844 10850 10854 10856 10857 10858 10859 10860 10860 10860 10861 10863 10866 10869 10871 10874 10876 10878 10880 10883 10886 10888 10889 10891 10892 10894 10895 10897 10898 10899 10901 10903 10905 10906 10907 10909 10912 10911 10904 10900 10902 10904 10904 10903 10901 10899 10898 10898 10898 10897 10897 10896 10895 10894 10892 10889
10798 10803 10810 10817 10822 10826 10830 10837 10842 10845 10847 10848 10850 10852 10853 10853 10854 10855 10857 10859 10862 10865 10867 10870 10873 10876 10879 10881 10882 10885 10887 10888 10891 10892 10893 10895 10897 10898 10899 10899 10898 10899 10902 10904 10902 10898 10897 10898 10898 10897 10896 10895 10894 10894 10894 10894 10893 10892 10891 10890 10888 10887 10885
10796 10801 10806 10812 10817 10821 10826 10830 10832 10833 10836 10839 10842 10845 10847 10849 10851 10853 10855 10856 10858 10861 10864 10867 10870 10872 10875 10876 10878 10880 10882 10884 10887 10889 10890 10892 10894 10895 10896 10895 10894 10896 10897 10897 10896 10895 10895 10895 10893 10891 10890 10889 10889 10889 10889 10889 10888 10886 10885 10884 10883 10881 10880
10790 10794 10799 10804 10810 10816 10821 10824 10824 10825 10828 10833 10837 10841 10844 10846 10848 10851 10854 10856 10857 10859 10862 10865 10866 10868 10870 10872 10873 10875 10877 10879 10882 10884 10885 10888 10890 10891 10892 10892 10892 10893 10893 10892 10892 10892 10893 10892 10889 10887 10885 10885 10884 10884 10884 10883 10883 10882 10880 10879 10877 10876 10875
10782 10786 10790 10796 10804 10811 10816 10819 10819 10821 10824 10829 10833 10838 10841 10844 10846 10848 10851 10853 10854 10856 10858 10860 10861 10862 10865 10868 10869 10871 10873 10875 10877 10878 10880 10882 10885 10887 10888 10889 10890 10889 10887 10886 10887 10886 10886 10886 10885 10883 10881 10881 10880 10880 10879 10879 10878 10877 10875 10873 10872 10871 10869
10776 10781 10787 10794 10801 10808 10812 10813 10813 10815 10820 10825 10829 10833 10837 10841 10843 10845 10847 10850 10852 10854 10855 10855 10856 10858 10862 10865 10866 10868 10870 10871 10872 10874 10875 10876 10879 10881 10883 10884 10884 10883 10881 10880 10880 10879 10879 10879 10879 10878 10877 10876 10876 10876 10875 10874 10873 10871 10870 10867 10866 10864 10863
10772 10777 10783 10792 10800 10805 10807 10807 10807 10809 10814 10820 10824 10828 10832 10837 10840 10842 10844 10848 10851 10852 10852 10852 10852 10854 10858 10861 10862 10863 10865 10866 10867 10868 10869 10870 10872 10874 10876 10877 10877 10876 10875 10875 10874 10873 10873 10872 10872 10872 10871 10870 10871 10870 10869 10868 10868 10866 10864 10862 10860 10858 10856
10767 10772 10779 10788 10796 10799 10798 10800 10803 10806 10811 10815 10819 10824 10829 10833 10836 10839 10841 10845 10848 10849 10849 10849 10849 10850 10853 10855 10857 10858 10860 10861 10862 10863 10864 10865 10866 10867 10869 10870 10870 10870 10870 10869 10869 10869 10868 10866 10865 10865 10864 10864 10864 10864 10864 10863 10862 10860 10858 10855 10853 10851 10849
10763 10767 10773 10783 10790 10791 10790 10794 10799 10802 10806 10809 10813 10819 10825 10828 10832 10836 10838 10840 10842 10843 10844 10844 10844 10845 10848 10850 10852 10854 10856 10857 10858 10858 10859 10861 10862 10863 10863 10863 10864 10864 10864 10864 10865 10865 10863 10861 10859 10858 10858 10859 10859 10858 10858 10857 10856 10854 10852 10849 10848 10846 10843
10759 10763 10769 10778 10784 10784 10785 10789 10793 10795 10798 10802 10807 10813 10818 10822 10826 10831 10833 10835 10837 10838 10839 10839 10839 10840 10843 10845 10848 10850 10851 10853 10853 10854 10855 10857 10858 10858 10858 10858 10858 10859 10858 10859 10862 10863 10860 10856 10852 10850 10851 10853 10853 10852 10852 10852 10850 10848 10846 10844 10843 10841 10838